Location: Balagbag Mahabang Kahoy
(14.1562°N, 120.9200°E)
Time: 04:41:29
(UTC+00:00)

Meteor 2-13 Rocket - Pass Details

Date: 16 January 2026
Orbit: 935 x 958 km, 82.5° (Epoch: 14 February)

Event Time Altitude Azimuth Distance (km) Brightness Sun altitude
Rises 21:44:39 0° 349° (NNW) 3,601 7.2 -9.9°
Reaches altitude 10° 21:47:10 10° 345° (NNW) 2,653 6.5 -9.3°
Maximum altitude 21:53:06 58° 267° (W) 1,081 4.5 -8.0°
Drops below altitude 10° 21:59:00 10° 189° (S) 2,639 6.9 -6.6°
Sets 22:01:31 0° 186° (S) 3,581 7.7 -6.1°
